Location: Unspecified
(0.0000°N, 0.0000°E)
Time: 02:22:56
(UTC+02:00)

Iridium 75 - Visible Passes

Search period start: 27 May 2016 00:00
Search period end: 06 June 2016 00:00
Orbit: 776 x 779 km, 86.4° (Epoch: 26 May)

Date Brightness Start Highest point End Pass type
(mag) Time Alt. Az. Time Alt. Az. Time Alt. Az.
03 Jun 8.8 23:04:03 10° NNW 23:04:22 12° NNW 23:04:22 12° NNW visible
04 Jun 8.2 22:30:08 10° N 22:31:24 18° N 22:31:24 18° N visible
05 Jun 7.8 21:56:58 10° NNE 21:58:29 19° NNE 21:58:29 19° NNE visible
